******** Week 150 almanac for PRN-1 ******** ID: 1 Health: 0 Eccentricity: 0.01145172119 Time of Applicability(s): 589824 Orbital Inclination(rad): 0.9868793494 Rate of Right Ascen(r/s): -8.011762293e-09 SQRT(A) (m 1/2): 5153.622559 Right Ascen at Week(rad): -2.039252564 Argument of Perigee(rad): 0.8832407465 Mean Anom(rad): -0.7686209979 Af0(s): 0.0003331240478 Af1(s/s): -1.091394e-11 week: 150 ******** Week 150 almanac for PRN-2 ******** ID: 2 Health: 0 Eccentricity: 0.02063131332 Time of Applicability(s): 589824 Orbital Inclination(rad): 0.9652118707 Rate of Right Ascen(r/s): -8.137481816e-09 SQRT(A) (m 1/2): 5153.649414 Right Ascen at Week(rad): -2.128764237 Argument of Perigee(rad): -1.437918987 Mean Anom(rad): -0.6282606322 Af0(s): -0.0005147595581 Af1(s/s): 0 week: 150 ******** Week 150 almanac for PRN-3 ******** ID: 3 Health: 0 Eccentricity: 0.003892421722 Time of Applicability(s): 589824 Orbital Inclination(rad): 0.9725641927 Rate of Right Ascen(r/s): -7.806039438e-09 SQRT(A) (m 1/2): 5153.630371 Right Ascen at Week(rad): -1.003882943 Argument of Perigee(rad): 0.9539514185 Mean Anom(rad): -1.917070769 Af0(s): -0.0001100364502 Af1(s/s): -1.818989e-11 week: 150 ******** Week 150 almanac for PRN-4 ******** ID: 4 Health: 0 Eccentricity: 0.001725673676 Time of Applicability(s): 589824 Orbital Inclination(rad): 0.9615806506 Rate of Right Ascen(r/s): -7.646032773e-09 SQRT(A) (m 1/2): 5153.599121 Right Ascen at Week(rad): 0.07728701546 Argument of Perigee(rad): -3.044253035 Mean Anom(rad): 0.99969895 Af0(s): -0.000147720166 Af1(s/s): 3.637979e-12 week: 150 ******** Week 150 almanac for PRN-5 ******** ID: 5 Health: 0 Eccentricity: 0.005857467651 Time of Applicability(s): 589824 Orbital Inclination(rad): 0.9595373402 Rate of Right Ascen(r/s): -7.943188008e-09 SQRT(A) (m 1/2): 5153.626953 Right Ascen at Week(rad): -1.044443926 Argument of Perigee(rad): 1.008695732 Mean Anom(rad): 1.88748359 Af0(s): -5.727924805e-05 Af1(s/s): 0 week: 150 ******** Week 150 almanac for PRN-6 ******** ID: 6 Health: 0 Eccentricity: 0.002688407898 Time of Applicability(s): 589824 Orbital Inclination(rad): 0.9862501775 Rate of Right Ascen(r/s): -8.011762293e-09 SQRT(A) (m 1/2): 5153.629883 Right Ascen at Week(rad): -2.047525049 Argument of Perigee(rad): -0.9414073056 Mean Anom(rad): -0.4560465712 Af0(s): 0.0001695767212 Af1(s/s): 1.091394e-11 week: 150 ******** Week 150 almanac for PRN-7 ******** ID: 7 Health: 0 Eccentricity: 0.01559209824 Time of Applicability(s): 589824 Orbital Inclination(rad): 0.9508128245 Rate of Right Ascen(r/s): -8.034620388e-09 SQRT(A) (m 1/2): 5153.623047 Right Ascen at Week(rad): 1.095873478 Argument of Perigee(rad): -2.289180578 Mean Anom(rad): -1.439384433 Af0(s): 0.0002472051758 Af1(s/s): 3.637979e-12 week: 150 ******** Week 150 almanac for PRN-8 ******** ID: 8 Health: 0 Eccentricity: 0.007346153259 Time of Applicability(s): 589824 Orbital Inclination(rad): 0.9648942888 Rate of Right Ascen(r/s): -7.840326581e-09 SQRT(A) (m 1/2): 5153.682617 Right Ascen at Week(rad): -3.118950709 Argument of Perigee(rad): 0.1144111482 Mean Anom(rad): 1.482618648 Af0(s): -4.59741333e-05 Af1(s/s): 0 week: 150 ******** Week 150 almanac for PRN-9 ******** ID: 9 Health: 0 Eccentricity: 0.002222537994 Time of Applicability(s): 589824 Orbital Inclination(rad): 0.9545818632 Rate of Right Ascen(r/s): -7.726036106e-09 SQRT(A) (m 1/2): 5153.563477 Right Ascen at Week(rad): 0.02426093981 Argument of Perigee(rad): 1.878363595 Mean Anom(rad): 1.858154821 Af0(s): -0.0002788594971 Af1(s/s): 3.637979e-12 week: 150 ******** Week 150 almanac for PRN-10 ******** ID: 10 Health: 0 Eccentricity: 0.007540225983 Time of Applicability(s): 589824 Orbital Inclination(rad): 0.9723784372 Rate of Right Ascen(r/s): -7.783181343e-09 SQRT(A) (m 1/2): 5153.636719 Right Ascen at Week(rad): -1.0066689 Argument of Perigee(rad): -2.507674345 Mean Anom(rad): -2.806569528 Af0(s): -0.0002622786621 Af1(s/s): -1.091394e-11 week: 150 ******** Week 150 almanac for PRN-11 ******** ID: 11 Health: 255 Eccentricity: 0.0002760887146 Time of Applicability(s): 589824 Orbital Inclination(rad): 0.9619701379 Rate of Right Ascen(r/s): -8.251772291e-09 SQRT(A) (m 1/2): 5153.724609 Right Ascen at Week(rad): -1.995742711 Argument of Perigee(rad): 2.807223417 Mean Anom(rad): 1.406498596 Af0(s): -6.029394531e-05 Af1(s/s): 1.091394e-11 week: 150 ******** Week 150 almanac for PRN-12 ******** ID: 12 Health: 0 Eccentricity: 0.008705615997 Time of Applicability(s): 589824 Orbital Inclination(rad): 0.9699875843 Rate of Right Ascen(r/s): -7.657461821e-09 SQRT(A) (m 1/2): 5153.547363 Right Ascen at Week(rad): 2.209026711 Argument of Perigee(rad): 1.249774895 Mean Anom(rad): -2.085418794 Af0(s): -0.0001401834229 Af1(s/s): -7.275958e-12 week: 150 ******** Week 150 almanac for PRN-13 ******** ID: 13 Health: 0 Eccentricity: 0.005805969238 Time of Applicability(s): 589824 Orbital Inclination(rad): 0.9690228542 Rate of Right Ascen(r/s): -7.623174678e-09 SQRT(A) (m 1/2): 5153.624023 Right Ascen at Week(rad): 0.1772223435 Argument of Perigee(rad): 0.9537577984 Mean Anom(rad): 0.932024032 Af0(s): 0.0002117824829 Af1(s/s): 7.275958e-12 week: 150 ******** Week 150 almanac for PRN-14 ******** ID: 14 Health: 0 Eccentricity: 0.001471996307 Time of Applicability(s): 589824 Orbital Inclination(rad): 0.9533774486 Rate of Right Ascen(r/s): -7.851755628e-09 SQRT(A) (m 1/2): 5153.597656 Right Ascen at Week(rad): 2.177546399 Argument of Perigee(rad): 3.024515017 Mean Anom(rad): -2.027546597 Af0(s): -7.009171143e-05 Af1(s/s): -3.637979e-12 week: 150 ******** Week 150 almanac for PRN-15 ******** ID: 15 Health: 0 Eccentricity: 0.01393270493 Time of Applicability(s): 589824 Orbital Inclination(rad): 0.9304216658 Rate of Right Ascen(r/s): -7.977475151e-09 SQRT(A) (m 1/2): 5153.688965 Right Ascen at Week(rad): -0.08203726261 Argument of Perigee(rad): 1.077465335 Mean Anom(rad): 0.4940728914 Af0(s): -6.406231689e-05 Af1(s/s): 3.637979e-12 week: 150 ******** Week 150 almanac for PRN-16 ******** ID: 16 Health: 0 Eccentricity: 0.01278495789 Time of Applicability(s): 589824 Orbital Inclination(rad): 0.9699396474 Rate of Right Ascen(r/s): -7.634603726e-09 SQRT(A) (m 1/2): 5153.5625 Right Ascen at Week(rad): 2.227641583 Argument of Perigee(rad): 0.7109143334 Mean Anom(rad): 2.342898368 Af0(s): -0.0003745761353 Af1(s/s): -3.637979e-12 week: 150 ******** Week 150 almanac for PRN-17 ******** ID: 17 Health: 0 Eccentricity: 0.01356887817 Time of Applicability(s): 589824 Orbital Inclination(rad): 0.9800363569 Rate of Right Ascen(r/s): -7.714607058e-09 SQRT(A) (m 1/2): 5153.725098 Right Ascen at Week(rad): -3.036929925 Argument of Perigee(rad): -1.495438772 Mean Anom(rad): 1.394952544 Af0(s): 0.0004582339844 Af1(s/s): 3.637979e-12 week: 150 ******** Week 150 almanac for PRN-18 ******** ID: 18 Health: 0 Eccentricity: 0.002111911774 Time of Applicability(s): 589824 Orbital Inclination(rad): 0.9706587009 Rate of Right Ascen(r/s): -8.171768958e-09 SQRT(A) (m 1/2): 5153.568359 Right Ascen at Week(rad): -2.031604756 Argument of Perigee(rad): 3.095001359 Mean Anom(rad): -0.5499238735 Af0(s): 0.0001831428589 Af1(s/s): -7.275958e-12 week: 150 ******** Week 150 almanac for PRN-19 ******** ID: 19 Health: 0 Eccentricity: 0.008999347687 Time of Applicability(s): 589824 Orbital Inclination(rad): 0.9787959897 Rate of Right Ascen(r/s): -7.737465153e-09 SQRT(A) (m 1/2): 5153.646484 Right Ascen at Week(rad): -2.992083083 Argument of Perigee(rad): 2.01171993 Mean Anom(rad): -2.470686533 Af0(s): 9.797766113e-05 Af1(s/s): 3.637979e-12 week: 150 ******** Week 150 almanac for PRN-20 ******** ID: 20 Health: 0 Eccentricity: 0.005126476288 Time of Applicability(s): 589824 Orbital Inclination(rad): 0.9417167978 Rate of Right Ascen(r/s): -8.160339911e-09 SQRT(A) (m 1/2): 5153.705078 Right Ascen at Week(rad): -1.158716881 Argument of Perigee(rad): -3.140155297 Mean Anom(rad): 0.2328939368 Af0(s): 0.0004084914795 Af1(s/s): 0 week: 150 ******** Week 150 almanac for PRN-21 ******** ID: 21 Health: 0 Eccentricity: 0.02458095551 Time of Applicability(s): 589824 Orbital Inclination(rad): 0.9594774191 Rate of Right Ascen(r/s): -8.171768958e-09 SQRT(A) (m 1/2): 5153.526367 Right Ascen at Week(rad): -2.130469368 Argument of Perigee(rad): -0.997112979 Mean Anom(rad): 1.592764161 Af0(s): 0.0001251099365 Af1(s/s): 0 week: 150 ******** Week 150 almanac for PRN-22 ******** ID: 22 Health: 0 Eccentricity: 0.0129699707 Time of Applicability(s): 589824 Orbital Inclination(rad): 0.9617304534 Rate of Right Ascen(r/s): -7.691748963e-09 SQRT(A) (m 1/2): 5153.609375 Right Ascen at Week(rad): 0.1255883104 Argument of Perigee(rad): -1.871067075 Mean Anom(rad): 1.282170502 Af0(s): 0.0001733450928 Af1(s/s): 7.275958e-12 week: 150 ******** Week 150 almanac for PRN-23 ******** ID: 23 Health: 0 Eccentricity: 0.001997947693 Time of Applicability(s): 589824 Orbital Inclination(rad): 0.9674289523 Rate of Right Ascen(r/s): -7.863184676e-09 SQRT(A) (m 1/2): 5153.658691 Right Ascen at Week(rad): -1.031589347 Argument of Perigee(rad): 2.981926826 Mean Anom(rad): -1.50284727 Af0(s): -1.507348633e-06 Af1(s/s): -3.637979e-12 week: 150 ******** Week 150 almanac for PRN-24 ******** ID: 24 Health: 0 Eccentricity: 0.01236104965 Time of Applicability(s): 589824 Orbital Inclination(rad): 0.9343644758 Rate of Right Ascen(r/s): -8.183198006e-09 SQRT(A) (m 1/2): 5153.625977 Right Ascen at Week(rad): 1.012916427 Argument of Perigee(rad): 0.8094490051 Mean Anom(rad): -0.4733203334 Af0(s): 0.0002147971802 Af1(s/s): -3.637979e-12 week: 150 ******** Week 150 almanac for PRN-25 ******** ID: 25 Health: 0 Eccentricity: 0.01053380966 Time of Applicability(s): 589824 Orbital Inclination(rad): 0.9573801797 Rate of Right Ascen(r/s): -7.817468486e-09 SQRT(A) (m 1/2): 5153.654297 Right Ascen at Week(rad): 2.132145287 Argument of Perigee(rad): 0.9834610743 Mean Anom(rad): -2.348301381 Af0(s): 0.0002298706665 Af1(s/s): 3.637979e-12 week: 150 ******** Week 150 almanac for PRN-26 ******** ID: 26 Health: 0 Eccentricity: 0.006907939911 Time of Applicability(s): 589824 Orbital Inclination(rad): 0.9382174041 Rate of Right Ascen(r/s): -8.011762293e-09 SQRT(A) (m 1/2): 5153.649414 Right Ascen at Week(rad): 2.084923696 Argument of Perigee(rad): 0.3738295452 Mean Anom(rad): -3.001932243 Af0(s): 0.000147720166 Af1(s/s): 3.637979e-12 week: 150 ******** Week 150 almanac for PRN-27 ******** ID: 27 Health: 0 Eccentricity: 0.0103058815 Time of Applicability(s): 589824 Orbital Inclination(rad): 0.9736068203 Rate of Right Ascen(r/s): -7.771752296e-09 SQRT(A) (m 1/2): 5153.609863 Right Ascen at Week(rad): -3.09944114 Argument of Perigee(rad): 0.6430165836 Mean Anom(rad): 1.451163428 Af0(s): 0.0001070217529 Af1(s/s): 1.455192e-11 week: 150 ******** Week 150 almanac for PRN-29 ******** ID: 29 Health: 0 Eccentricity: 0.001867294312 Time of Applicability(s): 589824 Orbital Inclination(rad): 0.9820556988 Rate of Right Ascen(r/s): -7.703178011e-09 SQRT(A) (m 1/2): 5153.707031 Right Ascen at Week(rad): -3.023900451 Argument of Perigee(rad): 2.242142121 Mean Anom(rad): 1.586783283 Af0(s): -0.000383620227 Af1(s/s): -3.637979e-12 week: 150 ******** Week 150 almanac for PRN-30 ******** ID: 30 Health: 0 Eccentricity: 0.005549430847 Time of Applicability(s): 589824 Orbital Inclination(rad): 0.9359643698 Rate of Right Ascen(r/s): -8.194627053e-09 SQRT(A) (m 1/2): 5153.504883 Right Ascen at Week(rad): 1.108834043 Argument of Perigee(rad): -2.740153328 Mean Anom(rad): -1.394795251 Af0(s): -0.0004077378052 Af1(s/s): -3.637979e-12 week: 150 ******** Week 150 almanac for PRN-31 ******** ID: 31 Health: 0 Eccentricity: 0.01045465469 Time of Applicability(s): 589824 Orbital Inclination(rad): 0.9550252796 Rate of Right Ascen(r/s): -7.977475151e-09 SQRT(A) (m 1/2): 5153.629883 Right Ascen at Week(rad): 1.114016097 Argument of Perigee(rad): 0.3787910143 Mean Anom(rad): -1.893440874 Af0(s): -0.0001318930054 Af1(s/s): 0 week: 150 ******** Week 150 almanac for PRN-32 ******** ID: 32 Health: 0 Eccentricity: 0.005636692047 Time of Applicability(s): 589824 Orbital Inclination(rad): 0.9584347915 Rate of Right Ascen(r/s): -7.703178011e-09 SQRT(A) (m 1/2): 5153.728516 Right Ascen at Week(rad): 0.03551113094 Argument of Perigee(rad): -2.346696618 Mean Anom(rad): 2.083454505 Af0(s): -5.878659668e-05 Af1(s/s): -7.275958e-12 week: 150